| time (UTC) | temp C | wind direction | speed KPH | gust KPH | rain 1hr cm | rain 24hr cm | rain mn cm | humidity % | barometer mb |
| 20260905100007 | 20 | 312 | 1.6 | 6.4 | 0.00 | 0.00 | 0.00 | 60 | 1023.1 |
| 20260905095404 | 20 | 327 | 1.6 | 6.4 | 0.00 | 0.00 | 0.00 | 62 | 1023.0 |
| 20260905094506 | 20 | 318 | 1.6 | 6.4 | 0.00 | 0.00 | 0.00 | 62 | 1023.1 |
| 20260905092703 | 19 | 313 | 1.6 | 9.7 | 0.00 | 0.00 | 0.00 | 65 | 1022.9 |
| 20260905091804 | 18 | 289 | 1.6 | 8.0 | 0.00 | 0.00 | 0.00 | 66 | 1022.8 |
| 20260905090903 | 18 | 333 | 1.6 | 6.4 | 0.00 | 0.00 | 0.00 | 68 | 1022.7 |
| 20260905090003 | 18 | 309 | 1.6 | 6.4 | 0.00 | 0.00 | 0.00 | 69 | 1022.6 |
| 20260905085617 | 18 | 317 | 1.6 | 6.4 | 0.00 | 0.00 | 0.00 | 70 | 1022.6 |
| 20260905084504 | 17 | 309 | 1.6 | 4.8 | 0.00 | 0.00 | 0.00 | 71 | 1022.6 |
| 20260905083816 | 17 | 306 | 0.0 | 4.8 | 0.00 | 0.00 | 0.00 | 72 | 1022.6 |
| 20260905082705 | 17 | 316 | 1.6 | 4.8 | 0.00 | 0.00 | 0.00 | 73 | 1022.6 |
| 20260905081805 | 16 | 252 | 1.6 | 9.7 | 0.00 | 0.00 | 0.00 | 75 | 1022.4 |
| 20260905081118 | 16 | 248 | 1.6 | 6.4 | 0.00 | 0.00 | 0.00 | 76 | 1022.4 |
| 20260905080005 | 16 | 245 | 1.6 | 9.7 | 0.00 | 0.08 | 0.00 | 76 | 1022.4 |
| 20260905075408 | 16 | 264 | 1.6 | 6.4 | 0.00 | 0.08 | 0.00 | 78 | 1022.5 |
| 20260905074715 | 15 | 292 | 1.6 | 6.4 | 0.00 | 0.08 | 0.00 | 78 | 1022.3 |
| 20260905073603 | 15 | 255 | 1.6 | 12.9 | 0.00 | 0.08 | 0.00 | 79 | 1022.2 |
| 20260905072703 | 15 | 258 | 1.6 | 6.4 | 0.00 | 0.08 | 0.00 | 80 | 1022.1 |
| 20260905071804 | 15 | 252 | 0.0 | 6.4 | 0.00 | 0.08 | 0.00 | 80 | 1021.9 |
| 20260905070904 | 14 | 249 | 0.0 | 3.2 | 0.00 | 0.08 | 0.00 | 83 | 1021.8 |
| 20260905070004 | 13 | 228 | 1.6 | 6.4 | 0.00 | 0.08 | 0.00 | 84 | 1021.8 |
| 20260905065405 | 13 | 206 | 0.0 | 4.8 | 0.00 | 0.08 | 0.00 | 85 | 1021.8 |
| 20260905064503 | 13 | 220 | 0.0 | 4.8 | 0.00 | 0.08 | 0.00 | 87 | 1021.7 |
| 20260905063605 | 12 | 218 | 0.0 | 3.2 | 0.00 | 0.08 | 0.00 | 89 | 1021.5 |
| 20260905062703 | 12 | 218 | 0.0 | 4.8 | 0.00 | 0.08 | 0.00 | 89 | 1021.4 |
| 20260905061803 | 12 | 216 | 0.0 | 4.8 | 0.00 | 0.08 | 0.00 | 90 | 1021.4 |
| 20260905060906 | 12 | 192 | 0.0 | 4.8 | 0.00 | 0.08 | 0.00 | 90 | 1021.2 |
| 20260905060004 | 12 | 171 | 0.0 | 1.6 | 0.00 | 0.08 | 0.00 | 90 | 1021.1 |
| 20260905055403 | 12 | 171 | 0.0 | 3.2 | 0.00 | 0.08 | 0.00 | 90 | 1021.1 |
| 20260905054716 | 12 | 189 | 0.0 | 6.4 | 0.00 | 0.08 | 0.00 | 90 | 1021.0 |
| 20260905053603 | 12 | 252 | 0.0 | 4.8 | 0.00 | 0.08 | 0.00 | 90 | 1020.9 |
| 20260905052707 | 12 | 249 | 0.0 | 4.8 | 0.00 | 0.08 | 0.00 | 89 | 1020.8 |
| 20260905052013 | 12 | 248 | 0.0 | 3.2 | 0.00 | 0.08 | 0.00 | 89 | 1020.7 |
| 20260905050905 | 12 | 248 | 0.0 | 4.8 | 0.00 | 0.08 | 0.00 | 89 | 1020.7 |
| 20260905050003 | 12 | 248 | 0.0 | 4.8 | 0.00 | 0.08 | 0.00 | 89 | 1020.6 |
| 20260905045405 | 12 | 248 | 0.0 | 4.8 | 0.00 | 0.08 | 0.00 | 89 | 1020.5 |
| 20260905044505 | 12 | 244 | 0.0 | 3.2 | 0.00 | 0.08 | 0.00 | 89 | 1020.2 |
| 20260905043605 | 12 | 250 | 0.0 | 4.8 | 0.00 | 0.08 | 0.00 | 88 | 1020.2 |
| 20260905042703 | 12 | 260 | 0.0 | 4.8 | 0.00 | 0.08 | 0.00 | 88 | 1020.2 |
| 20260905041805 | 12 | 253 | 0.0 | 6.4 | 0.00 | 0.08 | 0.00 | 88 | 1020.1 |
| 20260905040905 | 12 | 214 | 0.0 | 4.8 | 0.00 | 0.08 | 0.00 | 88 | 1020.2 |
| 20260905040004 | 12 | 214 | 0.0 | 3.2 | 0.00 | 0.08 | 0.00 | 88 | 1020.2 |
| 20260905035403 | 12 | 214 | 0.0 | 4.8 | 0.00 | 0.08 | 0.00 | 88 | 1020.1 |
| 20260905034503 | 12 | 214 | 0.0 | 4.8 | 0.00 | 0.08 | 0.00 | 88 | 1019.9 |
| 20260905033605 | 12 | 214 | 0.0 | 3.2 | 0.00 | 0.08 | 0.00 | 88 | 1019.9 |
| 20260905032703 | 12 | 195 | 0.0 | 4.8 | 0.00 | 0.08 | 0.00 | 88 | 1019.8 |
| 20260905031805 | 12 | 162 | 0.0 | 3.2 | 0.00 | 0.08 | 0.00 | 87 | 1019.7 |
| 20260905030903 | 12 | 161 | 0.0 | 3.2 | 0.00 | 0.08 | 0.00 | 87 | 1019.6 |
| 20260905030214 | 12 | 177 | 0.0 | 6.4 | 0.00 | 0.08 | 0.00 | 87 | 1019.5 |
| 20260905025403 | 12 | 192 | 0.0 | 8.0 | 0.00 | 0.08 | 0.00 | 87 | 1019.4 |
| 20260905024505 | 12 | 197 | 0.0 | 4.8 | 0.00 | 0.08 | 0.00 | 87 | 1019.4 |
| 20260905023603 | 12 | 241 | 0.0 | 6.4 | 0.00 | 0.08 | 0.00 | 87 | 1019.3 |
| 20260905022703 | 12 | 240 | 0.0 | 4.8 | 0.00 | 0.08 | 0.00 | 87 | 1019.2 |
| 20260905021803 | 13 | 235 | 0.0 | 4.8 | 0.00 | 0.08 | 0.00 | 87 | 1019.2 |
| 20260905020905 | 13 | 215 | 0.0 | 1.6 | 0.00 | 0.08 | 0.00 | 87 | 1019.1 |
| 20260905020005 | 13 | 218 | 0.0 | 3.2 | 0.00 | 0.08 | 0.00 | 86 | 1019.1 |
| 20260905015406 | 13 | 218 | 0.0 | 3.2 | 0.00 | 0.08 | 0.00 | 86 | 1019.0 |
| 20260905014503 | 13 | 218 | 0.0 | 3.2 | 0.00 | 0.08 | 0.00 | 86 | 1019.0 |
| 20260905013605 | 13 | 216 | 0.0 | 4.8 | 0.00 | 0.08 | 0.00 | 86 | 1019.0 |
| 20260905012703 | 13 | 233 | 0.0 | 6.4 | 0.00 | 0.08 | 0.00 | 86 | 1018.9 |
| 20260905011805 | 13 | 235 | 0.0 | 3.2 | 0.00 | 0.08 | 0.00 | 85 | 1018.9 |
| 20260905010906 | 13 | 238 | 0.0 | 4.8 | 0.00 | 0.08 | 0.00 | 85 | 1018.9 |
| 20260905010004 | 13 | 238 | 0.0 | 3.2 | 0.00 | 0.08 | 0.00 | 85 | 1018.9 |
| 20260905005617 | 13 | 238 | 0.0 | 3.2 | 0.00 | 0.08 | 0.00 | 84 | 1018.9 |
| 20260905004503 | 13 | 238 | 0.0 | 4.8 | 0.00 | 0.08 | 0.00 | 84 | 1018.9 |
| 20260905003605 | 13 | 238 | 0.0 | 3.2 | 0.00 | 0.08 | 0.00 | 84 | 1018.9 |
| 20260905002703 | 13 | 237 | 0.0 | 4.8 | 0.00 | 0.08 | 0.00 | 84 | 1018.8 |
| 20260905001805 | 13 | 237 | 0.0 | 4.8 | 0.00 | 0.08 | 0.00 | 84 | 1018.8 |
| 20260905000905 | 13 | 237 | 0.0 | 4.8 | 0.00 | 0.08 | 0.00 | 83 | 1018.7 |
| 20260904235406 | 13 | 247 | 0.0 | 3.2 | 0.00 | 0.08 | 0.00 | 83 | 1018.6 |
| 20260904234507 | 13 | 247 | 0.0 | 3.2 | 0.00 | 0.08 | 0.00 | 83 | 1018.7 |
| 20260904233817 | 13 | 247 | 0.0 | 4.8 | 0.00 | 0.08 | 0.00 | 82 | 1018.6 |
| 20260904232706 | 13 | 250 | 0.0 | 6.4 | 0.00 | 0.08 | 0.00 | 82 | 1018.6 |
| 20260904231805 | 13 | 252 | 0.0 | 3.2 | 0.00 | 0.08 | 0.00 | 81 | 1018.6 |
| 20260904230906 | 14 | 252 | 0.0 | 6.4 | 0.00 | 0.08 | 0.00 | 81 | 1018.4 |
| 20260904230007 | 14 | 251 | 1.6 | 6.4 | 0.00 | 0.08 | 0.00 | 81 | 1018.3 |
| 20260904225618 | 14 | 250 | 0.0 | 3.2 | 0.00 | 0.08 | 0.08 | 81 | 1018.3 |
| 20260904224506 | 14 | 262 | 0.0 | 4.8 | 0.00 | 0.08 | 0.08 | 80 | 1018.2 |
| 20260904223605 | 14 | 262 | 0.0 | 4.8 | 0.00 | 0.08 | 0.08 | 80 | 1018.3 |
| 20260904222705 | 14 | 261 | 0.0 | 3.2 | 0.00 | 0.08 | 0.08 | 80 | 1018.2 |
| 20260904222017 | 14 | 233 | 1.6 | 6.4 | 0.00 | 0.08 | 0.08 | 79 | 1018.2 |
| 20260904220003 | 15 | 221 | 1.6 | 3.2 | 0.00 | 0.08 | 0.08 | 78 | 1018.1 |
| 20260904214505 | 15 | 243 | 0.0 | 4.8 | 0.00 | 0.08 | 0.08 | 77 | 1018.1 |
| 20260904213608 | 15 | 244 | 0.0 | 4.8 | 0.00 | 0.08 | 0.08 | 77 | 1018.0 |
| 20260904212705 | 15 | 241 | 0.0 | 4.8 | 0.00 | 0.08 | 0.08 | 77 | 1018.0 |
| 20260904211804 | 15 | 239 | 0.0 | 3.2 | 0.00 | 0.08 | 0.08 | 76 | 1017.9 |
| 20260904210904 | 16 | 237 | 0.0 | 3.2 | 0.00 | 0.08 | 0.08 | 76 | 1017.8 |
| 20260904210218 | 16 | 236 | 0.0 | 3.2 | 0.00 | 0.08 | 0.08 | 76 | 1017.7 |
| 20260904205403 | 16 | 234 | 0.0 | 4.8 | 0.00 | 0.08 | 0.08 | 76 | 1017.8 |
| 20260904204717 | 16 | 245 | 0.0 | 3.2 | 0.00 | 0.08 | 0.08 | 76 | 1017.7 |
| 20260904203605 | 16 | 251 | 1.6 | 4.8 | 0.00 | 0.08 | 0.08 | 75 | 1017.8 |
| 20260904202916 | 16 | 246 | 1.6 | 6.4 | 0.00 | 0.08 | 0.08 | 75 | 1017.7 |
| 20260904201805 | 16 | 240 | 0.0 | 3.2 | 0.00 | 0.08 | 0.08 | 74 | 1017.7 |
| 20260904200905 | 16 | 239 | 0.0 | 3.2 | 0.00 | 0.08 | 0.08 | 73 | 1017.6 |
| 20260904200005 | 17 | 238 | 0.0 | 3.2 | 0.00 | 0.08 | 0.08 | 72 | 1017.7 |
| 20260904195403 | 17 | 238 | 0.0 | 4.8 | 0.00 | 0.08 | 0.08 | 72 | 1017.6 |
| 20260904194505 | 17 | 240 | 1.6 | 8.0 | 0.00 | 0.08 | 0.08 | 71 | 1017.4 |
| 20260904193605 | 17 | 246 | 1.6 | 6.4 | 0.00 | 0.08 | 0.08 | 70 | 1017.2 |
| 20260904192705 | 17 | 231 | 1.6 | 8.0 | 0.00 | 0.08 | 0.08 | 70 | 1016.9 |
| 20260904191806 | 17 | 232 | 1.6 | 4.8 | 0.00 | 0.08 | 0.08 | 69 | 1016.8 |
| 20260904190003 | 18 | 249 | 1.6 | 11.3 | 0.00 | 0.08 | 0.08 | 67 | 1016.4 |
| 20260904185408 | 18 | 241 | 1.6 | 4.8 | 0.00 | 0.08 | 0.08 | 66 | 1016.2 |
| 20260904183815 | 18 | 249 | 1.6 | 6.4 | 0.00 | 0.08 | 0.08 | 64 | 1015.8 |
| 20260904182933 | 18 | 251 | 1.6 | 8.0 | 0.00 | 0.08 | 0.08 | 64 | 1015.8 |
| 20260904181805 | 18 | 268 | 1.6 | 6.4 | 0.00 | 0.08 | 0.08 | 64 | 1015.7 |
| 20260904180906 | 18 | 241 | 1.6 | 4.8 | 0.00 | 0.08 | 0.08 | 63 | 1015.6 |
| 20260904180008 | 18 | 245 | 1.6 | 11.3 | 0.00 | 0.08 | 0.08 | 63 | 1015.5 |
| 20260904175403 | 18 | 242 | 3.2 | 14.5 | 0.00 | 0.08 | 0.08 | 63 | 1015.4 |
| 20260904174507 | 18 | 238 | 1.6 | 9.7 | 0.00 | 0.08 | 0.08 | 63 | 1015.3 |
| 20260904173821 | 18 | 239 | 1.6 | 11.3 | 0.00 | 0.08 | 0.08 | 64 | 1015.3 |
| 20260904172708 | 18 | 252 | 3.2 | 9.7 | 0.00 | 0.08 | 0.08 | 63 | 1015.1 |
| 20260904171805 | 19 | 237 | 3.2 | 9.7 | 0.00 | 0.08 | 0.08 | 63 | 1015.1 |
| 20260904170905 | 19 | 239 | 1.6 | 11.3 | 0.00 | 0.08 | 0.08 | 62 | 1015.1 |
| 20260904170008 | 19 | 199 | 1.6 | 11.3 | 0.00 | 0.08 | 0.08 | 62 | 1015.2 |
| 20260904165617 | 19 | 230 | 3.2 | 11.3 | 0.00 | 0.08 | 0.08 | 62 | 1015.1 |
| 20260904164508 | 19 | 240 | 3.2 | 11.3 | 0.00 | 0.08 | 0.08 | 61 | 1015.1 |
| 20260904163817 | 19 | 244 | 1.6 | 9.7 | 0.00 | 0.08 | 0.08 | 61 | 1014.9 |
| 20260904162703 | 20 | 231 | 1.6 | 11.3 | 0.00 | 0.08 | 0.08 | 60 | 1014.8 |
| 20260904161805 | 20 | 264 | 1.6 | 11.3 | 0.00 | 0.08 | 0.08 | 60 | 1014.7 |
| 20260904160905 | 20 | 240 | 3.2 | 14.5 | 0.00 | 0.08 | 0.08 | 60 | 1014.4 |
| 20260904160004 | 20 | 207 | 1.6 | 8.0 | 0.00 | 0.08 | 0.08 | 60 | 1014.5 |
| 20260904155403 | 20 | 254 | 3.2 | 12.9 | 0.00 | 0.08 | 0.08 | 59 | 1014.4 |
| 20260904154503 | 20 | 235 | 3.2 | 12.9 | 0.00 | 0.08 | 0.08 | 59 | 1014.5 |
| 20260904153605 | 20 | 237 | 3.2 | 12.9 | 0.00 | 0.08 | 0.08 | 59 | 1014.5 |
| 20260904152914 | 20 | 247 | 3.2 | 9.7 | 0.00 | 0.08 | 0.08 | 59 | 1014.7 |
| 20260904151806 | 20 | 244 | 3.2 | 14.5 | 0.00 | 0.08 | 0.08 | 59 | 1014.5 |
| 20260904151114 | 20 | 245 | 3.2 | 12.9 | 0.00 | 0.08 | 0.08 | 59 | 1014.5 |
| 20260904150216 | 20 | 245 | 3.2 | 16.1 | 0.00 | 0.08 | 0.08 | 59 | 1014.3 |
| 20260904145618 | 20 | 249 | 3.2 | 11.3 | 0.00 | 0.08 | 0.08 | 59 | 1014.4 |
| 20260904144504 | 20 | 256 | 3.2 | 12.9 | 0.00 | 0.08 | 0.08 | 59 | 1014.2 |
| 20260904143605 | 20 | 269 | 3.2 | 9.7 | 0.00 | 0.08 | 0.08 | 59 | 1014.2 |
| 20260904142705 | 20 | 267 | 3.2 | 12.9 | 0.00 | 0.08 | 0.08 | 59 | 1014.1 |
| 20260904141805 | 20 | 254 | 3.2 | 11.3 | 0.00 | 0.08 | 0.08 | 60 | 1014.1 |
| 20260904140905 | 20 | 243 | 1.6 | 12.9 | 0.00 | 0.08 | 0.08 | 59 | 1014.1 |
| 20260904140005 | 20 | 252 | 3.2 | 11.3 | 0.00 | 0.08 | 0.08 | 60 | 1014.3 |
| 20260904135405 | 20 | 260 | 3.2 | 12.9 | 0.00 | 0.08 | 0.08 | 60 | 1014.3 |
| 20260904134503 | 20 | 246 | 3.2 | 16.1 | 0.00 | 0.08 | 0.08 | 60 | 1013.9 |
| 20260904133813 | 20 | 250 | 3.2 | 16.1 | 0.00 | 0.08 | 0.08 | 61 | 1014.0 |
| 20260904132916 | 21 | 271 | 3.2 | 16.1 | 0.00 | 0.08 | 0.08 | 63 | 1014.1 |
| 20260904131803 | 21 | 256 | 3.2 | 12.9 | 0.00 | 0.08 | 0.08 | 63 | 1013.9 |
| 20260904131115 | 21 | 280 | 3.2 | 9.7 | 0.00 | 0.08 | 0.08 | 62 | 1014.1 |
| 20260904130004 | 21 | 261 | 3.2 | 14.5 | 0.00 | 0.08 | 0.08 | 63 | 1013.9 |
| 20260904125405 | 21 | 249 | 3.2 | 11.3 | 0.00 | 0.08 | 0.08 | 64 | 1013.7 |
| 20260904124506 | 21 | 241 | 3.2 | 16.1 | 0.00 | 0.08 | 0.08 | 64 | 1013.2 |
| 20260904123603 | 21 | 257 | 3.2 | 16.1 | 0.00 | 0.08 | 0.08 | 65 | 1013.3 |
| 20260904122703 | 21 | 243 | 3.2 | 16.1 | 0.00 | 0.08 | 0.08 | 64 | 1013.3 |
| 20260904122013 | 21 | 245 | 3.2 | 11.3 | 0.00 | 0.08 | 0.08 | 65 | 1013.3 |
| 20260904120904 | 21 | 254 | 3.2 | 11.3 | 0.00 | 0.08 | 0.08 | 66 | 1013.1 |
| 20260904120218 | 21 | 249 | 3.2 | 11.3 | 0.00 | 0.08 | 0.08 | 66 | 1013.1 |
| 20260904115406 | 21 | 253 | 3.2 | 12.9 | 0.00 | 0.08 | 0.08 | 67 | 1012.7 |
| 20260904114505 | 21 | 253 | 3.2 | 14.5 | 0.00 | 0.08 | 0.08 | 67 | 1013.0 |
| 20260904113606 | 21 | 261 | 3.2 | 11.3 | 0.00 | 0.08 | 0.08 | 69 | 1012.7 |
| 20260904112705 | 21 | 302 | 3.2 | 8.0 | 0.00 | 0.08 | 0.08 | 69 | 1012.5 |
| 20260904111805 | 21 | 293 | 3.2 | 14.5 | 0.00 | 0.08 | 0.08 | 68 | 1012.4 |
| 20260904110904 | 21 | 271 | 3.2 | 14.5 | 0.00 | 0.08 | 0.08 | 69 | 1012.4 |
| 20260904110005 | 21 | 255 | 3.2 | 8.0 | 0.00 | 0.08 | 0.08 | 71 | 1012.3 |
| 20260904105403 | 21 | 256 | 4.8 | 14.5 | 0.00 | 0.08 | 0.08 | 73 | 1012.4 |
| 20260904104718 | 21 | 249 | 3.2 | 14.5 | 0.00 | 0.08 | 0.08 | 74 | 1012.6 |
| 20260904103603 | 21 | 245 | 3.2 | 14.5 | 0.00 | 0.08 | 0.08 | 75 | 1012.3 |
| 20260904102703 | 21 | 252 | 3.2 | 16.1 | 0.00 | 0.08 | 0.08 | 75 | 1012.2 |
| 20260904101805 | 20 | 247 | 3.2 | 14.5 | 0.00 | 0.08 | 0.08 | 78 | 1012.1 |
| 20260904100906 | 20 | 260 | 4.8 | 12.9 | 0.00 | 0.08 | 0.08 | 79 | 1012.0 |